Hondo, TX

10:05 AM CST on December 10, 2019 (GMT -0600)
Hondo Municipal

Weather History for KHDO - October, 2019

Change the Weather History Date:

Saturday, October 26, 2019

  Actual Average Record
Temperature  
Mean Temperature 54 °F -  
Max Temperature 75 °F 77 °F 89 °F (2010)
Min Temperature 36 °F 56 °F 36 °F (2019)
Degree Days  
Heating Degree Days 10    
Growing Degree Days 4 (Base 50)    
Moisture  
Dew Point 30 °F    
Average Humidity 49    
Maximum Humidity 82    
Minimum Humidity 14    
Precipitation  
Precipitation 0.00 in - - ()
Sea Level Pressure  
Sea Level Pressure 29.96 in    
Wind  
Wind Speed 8 mph (West)    
Max Wind Speed 13 mph    
Max Gust Speed 17 mph    
Visibility 10 miles    
Events      
Averages and records for this station are not official NWS values.
T = Trace of Precipitation, MM = Missing Value Source: NWS Daily Summary

Daily Weather History Graph

Daily Weather History Graph

Search for Another Location

Airport or City:

Astronomy

Oct. 26, 2019 Rise Set
Actual Time 7:45 AM CDT 6:55 PM CDT
Civil Twilight 7:20 AM CDT 7:19 PM CDT
Nautical Twilight 6:53 AM CDT 7:47 PM CDT
Astronomical Twilight 6:25 AM CDT 8:15 PM CDT
Moon 5:57 AM CDT (10/26) 6:20 PM CDT (10/26)
Length of Visible Light 11h 58m
Length of Day
11h 10m
Waning Crescent, 3% of the Moon is Illuminated
Oct 26
Waning Crescent
Oct 27
New
Nov 4
First Quarter
Nov 12
Full
Nov 19
Last Quarter

Hourly Weather History & Observations

Time (CDT) Temp. Windchill Dew Point Humidity Pressure Visibility Wind Dir Wind Speed Gust Speed Precip Events Conditions
12:51 AM 43.0 °F 37.7 °F 35.1 °F 74% 30.06 in 10.0 mi West 9.2 mph - N/A   Clear
1:51 AM 43.0 °F 37.2 °F 35.1 °F 74% 30.06 in 10.0 mi WNW 10.4 mph - N/A   Clear
2:51 AM 43.0 °F 38.8 °F 33.1 °F 68% 30.05 in 10.0 mi WNW 6.9 mph - N/A   Clear
3:51 AM 41.0 °F 35.8 °F 33.1 °F 73% 30.02 in 10.0 mi NW 8.1 mph - N/A   Clear
4:51 AM 39.9 °F 37.8 °F 32.0 °F 73% 30.02 in 10.0 mi West 3.5 mph - N/A   Clear
5:51 AM 37.9 °F 32.1 °F 32.0 °F 79% 30.01 in 10.0 mi West 8.1 mph - N/A   Unknown
6:51 AM 36.0 °F 30.3 °F 30.9 °F 82% 30.01 in 10.0 mi West 6.9 mph - N/A   Clear
7:51 AM 37.0 °F 32.4 °F 30.9 °F 79% 30.01 in 10.0 mi West 5.8 mph - N/A   Unknown
8:51 AM 46.9 °F - 35.1 °F 63% 30.02 in 8.0 mi WNW 8.1 mph - N/A   Clear
9:51 AM 52.0 °F - 33.1 °F 49% 30.03 in 10.0 mi West 9.2 mph - N/A   Clear
10:51 AM 60.1 °F - 28.9 °F 31% 30.02 in 10.0 mi NNW 8.1 mph - N/A   Clear
11:51 AM 64.9 °F - 26.1 °F 23% 30.01 in 10.0 mi West 8.1 mph - N/A   Clear
12:51 PM 70.0 °F - 23.0 °F 17% 29.98 in 10.0 mi NW 12.7 mph - N/A   Clear
1:51 PM 70.0 °F - 21.0 °F 16% 29.94 in 10.0 mi West 5.8 mph 17.3 mph N/A   Clear
2:51 PM 73.0 °F - 19.9 °F 14% 29.91 in 10.0 mi West 10.4 mph - N/A   Clear
3:51 PM 73.9 °F - 24.1 °F 16% 29.88 in 10.0 mi West 10.4 mph - N/A   Clear
4:51 PM 73.9 °F - 23.0 °F 15% 29.87 in 10.0 mi SW 9.2 mph - N/A   Clear
5:51 PM 73.0 °F - 21.9 °F 15% 29.86 in 10.0 mi WSW 8.1 mph - N/A   Clear
6:51 PM 64.9 °F - 28.9 °F 26% 29.86 in 10.0 mi SSW 6.9 mph - N/A   Clear
7:51 PM 57.9 °F - 33.1 °F 39% 29.87 in 10.0 mi South 6.9 mph - N/A   Clear
8:51 PM 55.9 °F - 34.0 °F 44% 29.87 in 10.0 mi SSW 3.5 mph - N/A   Clear
9:51 PM 54.0 °F - 36.0 °F 51% 29.88 in 10.0 mi Calm Calm - N/A   Clear
10:51 PM 44.1 °F 41.5 °F 37.0 °F 76% 29.89 in 10.0 mi NNE 4.6 mph - N/A   Clear
11:51 PM 44.1 °F 40.8 °F 37.0 °F 76% 29.89 in 10.0 mi North 5.8 mph - N/A   Clear